Back to catalog

FENGYUN 1C DEB

AlivePO
NORAD 37687·DEBRIS·🇨🇳 China

Launched May 10, 1999 from Taiyuan Satellite Launch Center

Loading…

Next Passes (next 24 hours)

TLE

FreshSource: Space-Track

Epoch: Sep 13, 2026, 06:31 UTC

1 37687U 99025ELC 26256.27155272  .00004163  00000-0  23112-2 0  9993
2 37687  98.1895 263.0558 0326010 320.0414 100.3357 13.87996950870593

Track FENGYUN 1C DEB in real time with AllMySat

Download on the App Store